Flag for U.S.A. Weather past 2 weeks in Salina, Kansas, U.S.A.

Now
74 °F

Clear.


Feels Like: 77 °F
Forecast: 63 / 89 °F
Wind: 7 mph from Northwest

Location: Salina Municipal Airport

Current Time: Aug 1, 2014 at 11:46:44 PM

Latest Report: Aug 1, 2014 at 10:53 PM


Visibility: 10 mi

Pressure: 30.01 "Hg

Humidity: 57%

Dew point: 58 °F

Location of SalinaLocation

Historic Weather in Salina — Graph

°F

Salina temperature yesterday

Maximum temperature yesterday: 88 °F (at 3:53 PM)
Minimum temperature yesterday: 55 °F (at 7:02 AM)
Average temperature yesterday: 73 °F

Past Weeks' High & Low Weather Summary

 TemperatureHumidityPressure
High106 °F (Jul 25, 2:53 PM)96% (Jul 31, 7:02 AM)30.29 "Hg (Jul 31, 7:02 AM)
Low55 °F (Jul 31, 7:02 AM)17% (Jul 27, 3:53 PM)29.67 "Hg (Jul 25, 6:53 PM)
Average80 °F56%29.98 "Hg
* Reported Jul 17 10:53 PM — Aug 1 10:53 PM, Salina, Weather by CustomWeather, © 2014

Note: Actual official high and low records may vary slightly from our data, if they occured in-between our weather recording intervals... More about our weather records

Advertising

Salina weather history for previous 24 hours

 ConditionsComfort  
Time TempWeatherWind HumidityBarometerVisibility
10:53 PM
Aug 1
74 °FClear.7 mph57%30.01 "Hg10 mi
9:53 PM77 °FClear.7 mph52%30.01 "Hg10 mi
8:53 PM80 °FSunny.8 mph45%29.99 "Hg10 mi
7:53 PM86 °FSunny.8 mph32%29.98 "Hg10 mi
6:53 PM89 °FSunny.13 mph22%29.98 "Hg10 mi
5:53 PM91 °FSunny.15 mph23%29.98 "Hg10 mi
4:53 PM93 °FSunny.21 mph20%29.98 "Hg10 mi
3:53 PM93 °FSunny.24 mph20%29.99 "Hg10 mi
2:53 PM94 °FSunny.17 mph21%30.00 "Hg10 mi
1:53 PM93 °FPassing clouds.17 mph25%30.01 "Hg10 mi
12:53 PM90 °FPassing clouds.14 mph29%30.01 "Hg10 mi
11:53 AM86 °FSunny.6 mph40%30.02 "Hg10 mi
10:53 AM83 °FSunny.7 mph46%30.02 "Hg10 mi
9:53 AM79 °FSunny.8 mph50%30.02 "Hg10 mi
8:53 AM74 °FSunny.8 mph60%30.02 "Hg10 mi
7:53 AM68 °FSunny.7 mph68%30.01 "Hg10 mi
6:53 AM61 °FClear.5 mph81%30.01 "Hg10 mi
5:53 AM62 °FClear.6 mph78%29.99 "Hg10 mi
4:53 AM65 °FClear.9 mph70%30.01 "Hg10 mi
3:53 AM62 °FClear.7 mph78%30.01 "Hg10 mi
2:53 AM63 °FClear.7 mph73%30.01 "Hg10 mi
1:53 AM63 °FClear.5 mph75%30.02 "Hg10 mi
12:53 AM65 °FPassing clouds.6 mph73%30.03 "Hg10 mi
11:53 PM
Jul 31
69 °FClear.7 mph63%30.02 "Hg10 mi
Weather by CustomWeather, © 2014

See weather overviewHow to use our weather pages